| time (UTC) | temp C | wind direction | speed KPH | gust KPH | rain 1hr cm | rain 24hr cm | rain mn cm | humidity % | barometer mb |
| 20260904213945 | 20 | 69 | 1.6 | 4.8 | 0.00 | 0.03 | 0.03 | 58 | 1016.2 |
| 20260904213438 | 20 | 198 | 4.8 | 11.3 | 0.00 | 0.03 | 0.03 | 58 | 1016.2 |
| 20260904212935 | 20 | 86 | 1.6 | 9.7 | 0.00 | 0.03 | 0.03 | 59 | 1016.1 |
| 20260904212434 | 20 | 168 | 4.8 | 9.7 | 0.00 | 0.03 | 0.03 | 59 | 1016.3 |
| 20260904211930 | 20 | 218 | 4.8 | 9.7 | 0.00 | 0.03 | 0.03 | 60 | 1016.1 |
| 20260904211429 | 20 | 249 | 4.8 | 8.0 | 0.00 | 0.03 | 0.03 | 61 | 1016.0 |
| 20260904210925 | 20 | 227 | 6.4 | 11.3 | 0.00 | 0.03 | 0.03 | 61 | 1016.1 |
| 20260904210424 | 20 | 135 | 3.2 | 12.9 | 0.00 | 0.03 | 0.03 | 61 | 1016.2 |
| 20260904205920 | 20 | 254 | 4.8 | 8.0 | 0.00 | 0.03 | 0.03 | 61 | 1016.2 |
| 20260904205415 | 20 | 227 | 6.4 | 12.9 | 0.00 | 0.03 | 0.03 | 61 | 1016.2 |
| 20260904204912 | 19 | 211 | 6.4 | 9.7 | 0.00 | 0.03 | 0.03 | 65 | 1016.3 |
| 20260904204408 | 19 | 223 | 6.4 | 9.7 | 0.00 | 0.03 | 0.03 | 64 | 1016.3 |
| 20260904203904 | 19 | 227 | 6.4 | 11.3 | 0.00 | 0.03 | 0.03 | 63 | 1016.1 |
| 20260904203400 | 19 | 188 | 4.8 | 8.0 | 0.00 | 0.03 | 0.03 | 65 | 1016.2 |
| 20260904202856 | 18 | 186 | 3.2 | 8.0 | 0.00 | 0.03 | 0.03 | 66 | 1016.2 |
| 20260904202352 | 19 | 195 | 8.0 | 12.9 | 0.00 | 0.03 | 0.03 | 63 | 1016.3 |
| 20260904201847 | 19 | 215 | 4.8 | 9.7 | 0.00 | 0.03 | 0.03 | 63 | 1016.2 |
| 20260904201342 | 18 | 160 | 0.0 | 9.7 | 0.00 | 0.03 | 0.03 | 66 | 1016.4 |
| 20260904200837 | 18 | 200 | 4.8 | 8.0 | 0.00 | 0.03 | 0.03 | 67 | 1016.3 |
| 20260904200335 | 18 | 213 | 4.8 | 8.0 | 0.00 | 0.03 | 0.03 | 68 | 1016.5 |
| 20260904195830 | 17 | 206 | 4.8 | 8.0 | 0.00 | 0.03 | 0.03 | 68 | 1016.5 |
| 20260904195329 | 18 | 215 | 4.8 | 4.8 | 0.00 | 0.03 | 0.03 | 69 | 1016.5 |
| 20260904194829 | 18 | 165 | 4.8 | 9.7 | 0.00 | 0.03 | 0.03 | 69 | 1016.4 |
| 20260904194328 | 18 | 210 | 4.8 | 11.3 | 0.00 | 0.03 | 0.03 | 68 | 1016.3 |
| 20260904193823 | 18 | 215 | 3.2 | 11.3 | 0.00 | 0.03 | 0.03 | 69 | 1016.4 |
| 20260904193319 | 17 | 224 | 4.8 | 9.7 | 0.00 | 0.03 | 0.03 | 71 | 1016.3 |
| 20260904192814 | 17 | 230 | 6.4 | 9.7 | 0.00 | 0.03 | 0.03 | 71 | 1016.3 |
| 20260904192309 | 17 | 169 | 9.7 | 12.9 | 0.00 | 0.03 | 0.03 | 72 | 1016.3 |
| 20260904191806 | 17 | 224 | 8.0 | 9.7 | 0.00 | 0.03 | 0.03 | 72 | 1016.5 |
| 20260904191302 | 17 | 178 | 6.4 | 9.7 | 0.00 | 0.03 | 0.03 | 74 | 1016.3 |
| 20260904190758 | 17 | 250 | 8.0 | 9.7 | 0.00 | 0.03 | 0.03 | 73 | 1016.3 |
| 20260904190254 | 17 | 225 | 8.0 | 16.1 | 0.00 | 0.03 | 0.03 | 73 | 1016.7 |
| 20260904185750 | 17 | 200 | 3.2 | 8.0 | 0.00 | 0.03 | 0.03 | 74 | 1016.6 |
| 20260904185245 | 17 | 180 | 6.4 | 11.3 | 0.00 | 0.03 | 0.03 | 73 | 1016.4 |
| 20260904184743 | 17 | 162 | 1.6 | 8.0 | 0.00 | 0.03 | 0.03 | 74 | 1016.6 |
| 20260904184240 | 17 | 178 | 6.4 | 11.3 | 0.00 | 0.03 | 0.03 | 74 | 1016.4 |
| 20260904183735 | 17 | 188 | 4.8 | 16.1 | 0.00 | 0.03 | 0.03 | 73 | 1016.5 |
| 20260904183230 | 16 | 136 | 6.4 | 11.3 | 0.00 | 0.03 | 0.03 | 75 | 1016.5 |
| 20260904182725 | 16 | 147 | 3.2 | 11.3 | 0.00 | 0.03 | 0.03 | 77 | 1016.5 |
| 20260904182220 | 16 | 196 | 4.8 | 11.3 | 0.00 | 0.03 | 0.03 | 77 | 1016.6 |
| 20260904181716 | 16 | 215 | 8.0 | 8.0 | 0.00 | 0.03 | 0.03 | 76 | 1016.6 |
| 20260904181216 | 16 | 199 | 11.3 | 16.1 | 0.00 | 0.03 | 0.03 | 77 | 1016.7 |
| 20260904180712 | 17 | 158 | 6.4 | 9.7 | 0.00 | 0.03 | 0.03 | 74 | 1016.6 |
| 20260904180207 | 17 | 186 | 4.8 | 12.9 | 0.00 | 0.03 | 0.03 | 77 | 1016.6 |
| 20260904175706 | 17 | 88 | 1.6 | 8.0 | 0.00 | 0.03 | 0.03 | 77 | 1016.7 |
| 20260904175205 | 17 | 160 | 4.8 | 8.0 | 0.00 | 0.03 | 0.03 | 78 | 1016.5 |
| 20260904174705 | 16 | 208 | 4.8 | 8.0 | 0.00 | 0.03 | 0.03 | 79 | 1016.5 |
| 20260904174201 | 16 | 269 | 8.0 | 11.3 | 0.00 | 0.03 | 0.03 | 80 | 1016.5 |
| 20260904173656 | 16 | 225 | 4.8 | 8.0 | 0.00 | 0.03 | 0.03 | 82 | 1016.6 |
| 20260904173151 | 16 | 169 | 3.2 | 4.8 | 0.00 | 0.03 | 0.03 | 82 | 1016.7 |
| 20260904172648 | 16 | 158 | 0.0 | 4.8 | 0.00 | 0.03 | 0.03 | 83 | 1016.4 |
| 20260904172147 | 15 | 158 | 0.0 | 3.2 | 0.00 | 0.03 | 0.03 | 86 | 1016.6 |
| 20260904171642 | 15 | 203 | 4.8 | 4.8 | 0.00 | 0.03 | 0.03 | 85 | 1016.6 |
| 20260904171137 | 15 | 195 | 6.4 | 8.0 | 0.00 | 0.03 | 0.03 | 85 | 1016.4 |
| 20260904170633 | 15 | 157 | 1.6 | 8.0 | 0.00 | 0.03 | 0.03 | 86 | 1016.6 |
| 20260904170129 | 15 | 158 | 1.6 | 4.8 | 0.00 | 0.03 | 0.03 | 88 | 1016.8 |
| 20260904165628 | 15 | 147 | 3.2 | 4.8 | 0.00 | 0.03 | 0.03 | 89 | 1016.5 |
| 20260904165127 | 15 | 208 | 3.2 | 3.2 | 0.00 | 0.03 | 0.03 | 88 | 1016.7 |
| 20260904164627 | 15 | 160 | 1.6 | 3.2 | 0.00 | 0.03 | 0.03 | 89 | 1016.5 |
| 20260904164123 | 15 | 188 | 1.6 | 4.8 | 0.00 | 0.03 | 0.03 | 89 | 1016.6 |
| 20260904163619 | 15 | 169 | 1.6 | 8.0 | 0.00 | 0.03 | 0.03 | 91 | 1016.4 |
| 20260904163114 | 15 | 176 | 3.2 | 3.2 | 0.00 | 0.03 | 0.03 | 91 | 1016.5 |
| 20260904162613 | 15 | 162 | 3.2 | 4.8 | 0.00 | 0.03 | 0.03 | 93 | 1016.4 |
| 20260904162109 | 15 | 168 | 1.6 | 3.2 | 0.00 | 0.03 | 0.03 | 94 | 1016.2 |
| 20260904161604 | 14 | 175 | 0.0 | 0.0 | 0.00 | 0.03 | 0.03 | 96 | 1016.4 |
| 20260904161059 | 13 | 159 | 0.0 | 0.0 | 0.00 | 0.03 | 0.03 | 97 | 1016.3 |
| 20260904160554 | 13 | 166 | 0.0 | 0.0 | 0.00 | 0.03 | 0.03 | 97 | 1016.2 |
| 20260904160050 | 13 | 153 | 0.0 | 0.0 | 0.00 | 0.03 | 0.03 | 97 | 1016.4 |
| 20260904155549 | 13 | 136 | 0.0 | 1.6 | 0.00 | 0.03 | 0.03 | 97 | 1016.3 |
| 20260904155044 | 13 | 113 | 0.0 | 0.0 | 0.00 | 0.03 | 0.03 | 97 | 1016.2 |
| 20260904154537 | 13 | 135 | 0.0 | 0.0 | 0.00 | 0.03 | 0.03 | 98 | 1016.1 |
| 20260904154032 | 13 | 133 | 0.0 | 0.0 | 0.00 | 0.03 | 0.03 | 97 | 1016.3 |
| 20260904153532 | 13 | 158 | 0.0 | 0.0 | 0.00 | 0.03 | 0.03 | 97 | 1016.3 |
| 20260904153029 | 13 | 156 | 0.0 | 0.0 | 0.00 | 0.03 | 0.03 | 98 | 1016.2 |
| 20260904152524 | 13 | 154 | 0.0 | 0.0 | 0.00 | 0.03 | 0.03 | 98 | 1016.0 |
| 20260904152019 | 13 | 153 | 0.0 | 0.0 | 0.00 | 0.03 | 0.03 | 98 | 1016.0 |
| 20260904151514 | 12 | 156 | 0.0 | 0.0 | 0.00 | 0.03 | 0.03 | 98 | 1016.0 |
| 20260904151008 | 12 | 154 | 0.0 | 0.0 | 0.00 | 0.03 | 0.03 | 98 | 1015.9 |
| 20260904150503 | 12 | 157 | 0.0 | 0.0 | 0.00 | 0.03 | 0.03 | 98 | 1015.7 |
| 20260904150002 | 12 | 154 | 0.0 | 0.0 | 0.00 | 0.03 | 0.03 | 98 | 1015.6 |
| 20260904145457 | 12 | 155 | 0.0 | 0.0 | 0.00 | 0.03 | 0.03 | 98 | 1015.9 |
| 20260904144953 | 12 | 154 | 0.0 | 0.0 | 0.00 | 0.03 | 0.03 | 98 | 1015.7 |
| 20260904144448 | 12 | 154 | 0.0 | 0.0 | 0.00 | 0.03 | 0.03 | 98 | 1015.7 |
| 20260904143944 | 12 | 154 | 0.0 | 0.0 | 0.00 | 0.03 | 0.03 | 98 | 1015.5 |
| 20260904143440 | 12 | 153 | 0.0 | 0.0 | 0.00 | 0.03 | 0.03 | 98 | 1015.6 |
| 20260904142937 | 12 | 152 | 0.0 | 0.0 | 0.00 | 0.03 | 0.03 | 98 | 1015.6 |
| 20260904142433 | 11 | 146 | 0.0 | 0.0 | 0.00 | 0.03 | 0.03 | 98 | 1015.7 |
| 20260904141927 | 11 | 148 | 0.0 | 0.0 | 0.00 | 0.03 | 0.03 | 98 | 1015.7 |
| 20260904141422 | 11 | 147 | 0.0 | 0.0 | 0.00 | 0.03 | 0.03 | 98 | 1015.6 |
| 20260904140919 | 11 | 148 | 0.0 | 0.0 | 0.00 | 0.03 | 0.03 | 98 | 1015.5 |
| 20260904140419 | 11 | 143 | 0.0 | 0.0 | 0.00 | 0.03 | 0.03 | 98 | 1015.5 |
| 20260904135918 | 11 | 151 | 0.0 | 0.0 | 0.00 | 0.03 | 0.03 | 98 | 1015.4 |
| 20260904135418 | 11 | 153 | 0.0 | 0.0 | 0.00 | 0.03 | 0.03 | 98 | 1015.2 |
| 20260904134914 | 11 | 151 | 0.0 | 0.0 | 0.18 | 0.03 | 0.03 | 98 | 1015.1 |
| 20260904134413 | 11 | 154 | 0.0 | 0.0 | 0.00 | 0.00 | 0.00 | 97 | 1015.1 |
| 20260904133909 | 11 | 151 | 0.0 | 0.0 | 0.00 | 0.00 | 0.00 | 97 | 1015.2 |
| 20260904133403 | 11 | 152 | 0.0 | 0.0 | 0.00 | 0.00 | 0.00 | 97 | 1014.9 |
| 20260904132858 | 11 | 152 | 0.0 | 0.0 | 0.00 | 0.00 | 0.00 | 97 | 1014.9 |
| 20260904132359 | 11 | 152 | 0.0 | 0.0 | 0.00 | 0.00 | 0.00 | 97 | 1015.0 |
| 20260904131858 | 11 | 146 | 0.0 | 0.0 | 0.00 | 0.00 | 0.00 | 97 | 1015.1 |
| 20260904131354 | 11 | 151 | 0.0 | 0.0 | 0.00 | 0.00 | 0.00 | 97 | 1015.1 |
| 20260904130849 | 11 | 152 | 0.0 | 0.0 | 0.00 | 0.00 | 0.00 | 97 | 1015.0 |
| 20260904130348 | 11 | 152 | 0.0 | 0.0 | 0.00 | 0.00 | 0.00 | 97 | 1014.9 |
| 20260904125843 | 11 | 152 | 0.0 | 0.0 | 0.00 | 0.00 | 0.00 | 97 | 1014.9 |
| 20260904125340 | 11 | 152 | 0.0 | 0.0 | 0.00 | 0.00 | 0.00 | 97 | 1014.9 |
| 20260904124838 | 11 | 153 | 0.0 | 0.0 | 0.00 | 0.00 | 0.00 | 97 | 1014.8 |
| 20260904124335 | 11 | 152 | 0.0 | 0.0 | 0.00 | 0.00 | 0.00 | 97 | 1014.9 |
| 20260904123831 | 11 | 149 | 0.0 | 0.0 | 0.00 | 0.00 | 0.00 | 97 | 1014.6 |
| 20260904123326 | 11 | 154 | 0.0 | 0.0 | 0.00 | 0.00 | 0.00 | 97 | 1014.7 |
| 20260904122821 | 11 | 151 | 0.0 | 0.0 | 0.00 | 0.00 | 0.00 | 97 | 1014.8 |
| 20260904122320 | 11 | 153 | 0.0 | 0.0 | 0.00 | 0.00 | 0.00 | 97 | 1014.6 |
| 20260904121815 | 11 | 155 | 0.0 | 0.0 | 0.00 | 0.00 | 0.00 | 97 | 1014.5 |
| 20260904121312 | 11 | 157 | 0.0 | 0.0 | 0.00 | 0.00 | 0.00 | 97 | 1014.4 |
| 20260904120808 | 11 | 155 | 0.0 | 0.0 | 0.00 | 0.00 | 0.00 | 97 | 1014.5 |
| 20260904120258 | 11 | 152 | 0.0 | 0.0 | 0.00 | 0.00 | 0.00 | 97 | 1014.4 |
| 20260904115753 | 11 | 142 | 0.0 | 0.0 | 0.00 | 0.00 | 0.00 | 97 | 1014.7 |
| 20260904115248 | 11 | 156 | 0.0 | 0.0 | 0.00 | 0.00 | 0.00 | 97 | 1014.2 |
| 20260904114742 | 11 | 154 | 0.0 | 0.0 | 0.00 | 0.00 | 0.00 | 97 | 1014.4 |
| 20260904114242 | 11 | 157 | 0.0 | 0.0 | 0.00 | 0.00 | 0.00 | 97 | 1014.4 |
| 20260904113737 | 11 | 154 | 0.0 | 0.0 | 0.00 | 0.00 | 0.00 | 97 | 1014.3 |
| 20260904113236 | 11 | 148 | 0.0 | 0.0 | 0.00 | 0.00 | 0.00 | 97 | 1014.3 |
| 20260904112731 | 11 | 153 | 0.0 | 0.0 | 0.00 | 0.00 | 0.00 | 97 | 1014.3 |
| 20260904112227 | 11 | 153 | 0.0 | 0.0 | 0.00 | 0.00 | 0.00 | 97 | 1014.2 |
| 20260904111722 | 11 | 143 | 0.0 | 0.0 | 0.00 | 0.00 | 0.00 | 97 | 1014.4 |
| 20260904111218 | 11 | 151 | 0.0 | 0.0 | 0.00 | 0.00 | 0.00 | 97 | 1014.2 |
| 20260904110713 | 11 | 153 | 0.0 | 0.0 | 0.00 | 0.00 | 0.00 | 97 | 1014.3 |
| 20260904110212 | 11 | 152 | 0.0 | 0.0 | 0.00 | 0.00 | 0.00 | 97 | 1014.2 |
| 20260904105708 | 11 | 157 | 0.0 | 0.0 | 0.00 | 0.00 | 0.00 | 97 | 1014.1 |
| 20260904105202 | 11 | 153 | 0.0 | 0.0 | 0.00 | 0.00 | 0.00 | 97 | 1014.1 |
| 20260904104658 | 11 | 153 | 0.0 | 0.0 | 0.00 | 0.00 | 0.00 | 97 | 1014.1 |
| 20260904104153 | 11 | 149 | 0.0 | 0.0 | 0.00 | 0.00 | 0.00 | 97 | 1014.0 |
| 20260904103650 | 11 | 154 | 0.0 | 0.0 | 0.00 | 0.00 | 0.00 | 97 | 1014.2 |
| 20260904103145 | 11 | 157 | 0.0 | 0.0 | 0.00 | 0.00 | 0.00 | 97 | 1014.3 |
| 20260904102641 | 11 | 151 | 0.0 | 0.0 | 0.00 | 0.00 | 0.00 | 97 | 1014.2 |
| 20260904102135 | 11 | 140 | 0.0 | 0.0 | 0.00 | 0.00 | 0.00 | 97 | 1013.8 |
| 20260904101632 | 11 | 142 | 0.0 | 0.0 | 0.00 | 0.00 | 0.00 | 97 | 1013.8 |
| 20260904101128 | 11 | 157 | 0.0 | 0.0 | 0.00 | 0.00 | 0.00 | 97 | 1013.9 |
| 20260904100624 | 11 | 154 | 0.0 | 0.0 | 0.00 | 0.00 | 0.00 | 97 | 1013.6 |
| 20260904100118 | 11 | 154 | 0.0 | 0.0 | 0.00 | 0.00 | 0.00 | 97 | 1013.7 |
| 20260904095613 | 11 | 156 | 0.0 | 0.0 | 0.00 | 0.00 | 0.00 | 97 | 1013.8 |
| 20260904095108 | 11 | 155 | 0.0 | 0.0 | 0.00 | 0.00 | 0.00 | 97 | 1013.9 |
| 20260904094608 | 11 | 152 | 0.0 | 0.0 | 0.00 | 0.00 | 0.00 | 97 | 1013.7 |
| 20260904094103 | 11 | 152 | 0.0 | 0.0 | 0.00 | 0.00 | 0.00 | 97 | 1013.8 |
| 20260904093600 | 11 | 152 | 0.0 | 0.0 | 0.00 | 0.00 | 0.00 | 97 | 1013.7 |
| 20260904093054 | 11 | 148 | 0.0 | 0.0 | 0.00 | 0.00 | 0.00 | 97 | 1013.7 |
| 20260904092550 | 11 | 148 | 0.0 | 0.0 | 0.00 | 0.00 | 0.00 | 97 | 1013.7 |
| 20260904092047 | 11 | 148 | 0.0 | 0.0 | 0.00 | 0.00 | 0.00 | 97 | 1013.8 |
| 20260904091543 | 11 | 137 | 0.0 | 0.0 | 0.00 | 0.00 | 0.00 | 97 | 1013.8 |
| 20260904091042 | 11 | 147 | 0.0 | 0.0 | 0.00 | 0.00 | 0.00 | 96 | 1014.0 |
| 20260904090537 | 11 | 149 | 0.0 | 0.0 | 0.00 | 0.00 | 0.00 | 96 | 1013.8 |
| 20260904090033 | 11 | 157 | 0.0 | 0.0 | 0.00 | 0.00 | 0.00 | 96 | 1013.7 |
| 20260904085528 | 11 | 155 | 0.0 | 0.0 | 0.00 | 0.00 | 0.00 | 96 | 1013.9 |
| 20260904085028 | 11 | 152 | 0.0 | 0.0 | 0.00 | 0.00 | 0.00 | 96 | 1013.9 |
| 20260904084524 | 11 | 155 | 0.0 | 0.0 | 0.00 | 0.00 | 0.00 | 96 | 1014.1 |
| 20260904084020 | 12 | 152 | 0.0 | 0.0 | 0.00 | 0.00 | 0.00 | 96 | 1013.9 |
| 20260904083516 | 12 | 152 | 0.0 | 0.0 | 0.00 | 0.00 | 0.00 | 96 | 1013.7 |
| 20260904083011 | 12 | 151 | 0.0 | 0.0 | 0.00 | 0.00 | 0.00 | 96 | 1013.7 |
| 20260904082506 | 12 | 145 | 0.0 | 0.0 | 0.00 | 0.00 | 0.00 | 96 | 1013.7 |
| 20260904082002 | 12 | 151 | 0.0 | 0.0 | 0.00 | 0.00 | 0.00 | 96 | 1013.6 |
| 20260904081457 | 12 | 160 | 0.0 | 0.0 | 0.00 | 0.00 | 0.00 | 96 | 1013.7 |
| 20260904080952 | 12 | 157 | 0.0 | 0.0 | 0.00 | 0.00 | 0.00 | 96 | 1013.6 |
| 20260904080448 | 12 | 149 | 0.0 | 0.0 | 0.00 | 0.00 | 0.00 | 96 | 1013.7 |
| 20260904075943 | 12 | 144 | 0.0 | 0.0 | 0.00 | 0.00 | 0.00 | 96 | 1013.7 |
| 20260904075439 | 12 | 154 | 0.0 | 0.0 | 0.00 | 0.00 | 0.00 | 96 | 1013.4 |
| 20260904074938 | 12 | 157 | 0.0 | 0.0 | 0.00 | 0.00 | 0.00 | 96 | 1013.7 |
| 20260904074434 | 12 | 155 | 0.0 | 0.0 | 0.00 | 0.00 | 0.00 | 96 | 1013.9 |
| 20260904073928 | 12 | 156 | 0.0 | 0.0 | 0.00 | 0.00 | 0.00 | 96 | 1013.8 |
| 20260904073424 | 12 | 152 | 0.0 | 0.0 | 0.00 | 0.00 | 0.00 | 96 | 1013.9 |
| 20260904072920 | 12 | 155 | 0.0 | 0.0 | 0.00 | 0.00 | 0.00 | 96 | 1013.9 |
| 20260904072415 | 12 | 154 | 0.0 | 0.0 | 0.00 | 0.00 | 0.00 | 96 | 1014.1 |
| 20260904071910 | 12 | 149 | 0.0 | 0.0 | 0.00 | 0.00 | 0.00 | 96 | 1013.9 |
| 20260904071406 | 12 | 122 | 0.0 | 0.0 | 0.00 | 0.00 | 0.00 | 96 | 1013.7 |
| 20260904070900 | 12 | 142 | 0.0 | 0.0 | 0.00 | 0.00 | 0.00 | 96 | 1014.0 |
| 20260904070359 | 12 | 145 | 0.0 | 0.0 | 0.13 | 0.00 | 0.00 | 96 | 1013.9 |
| 20260904065853 | 12 | 148 | 0.0 | 0.0 | 0.13 | 0.30 | 0.30 | 96 | 1013.9 |
| 20260904065350 | 12 | 135 | 0.0 | 0.0 | 0.00 | 0.28 | 0.28 | 96 | 1013.9 |
| 20260904064844 | 12 | 157 | 0.0 | 0.0 | 0.00 | 0.28 | 0.28 | 96 | 1013.7 |
| 20260904064340 | 12 | 149 | 0.0 | 0.0 | 0.00 | 0.28 | 0.28 | 96 | 1013.7 |
| 20260904063836 | 12 | 155 | 0.0 | 0.0 | 0.00 | 0.28 | 0.28 | 96 | 1013.8 |
| 20260904063332 | 12 | 139 | 0.0 | 0.0 | 0.00 | 0.28 | 0.28 | 96 | 1013.9 |
| 20260904062832 | 12 | 152 | 0.0 | 0.0 | 0.00 | 0.28 | 0.28 | 96 | 1013.7 |
| 20260904062328 | 12 | 138 | 0.0 | 0.0 | 0.00 | 0.28 | 0.28 | 96 | 1013.7 |
| 20260904061823 | 12 | 154 | 0.0 | 0.0 | 0.00 | 0.28 | 0.28 | 96 | 1013.8 |
| 20260904061320 | 12 | 143 | 0.0 | 0.0 | 0.00 | 0.28 | 0.28 | 96 | 1013.8 |
| 20260904060816 | 12 | 139 | 0.0 | 0.0 | 0.18 | 0.28 | 0.28 | 96 | 1013.7 |
| 20260904060312 | 12 | 156 | 1.6 | 1.6 | 0.18 | 0.28 | 0.28 | 96 | 1013.6 |
| 20260904055807 | 12 | 148 | 0.0 | 0.0 | 0.00 | 0.25 | 0.25 | 96 | 1013.8 |
| 20260904055306 | 12 | 151 | 0.0 | 0.0 | 0.00 | 0.25 | 0.25 | 96 | 1013.5 |
| 20260904054756 | 12 | 153 | 0.0 | 0.0 | 0.00 | 0.25 | 0.25 | 96 | 1013.6 |
| 20260904054253 | 12 | 153 | 0.0 | 0.0 | 0.00 | 0.25 | 0.25 | 96 | 1013.6 |
| 20260904053748 | 12 | 153 | 0.0 | 0.0 | 0.00 | 0.25 | 0.25 | 96 | 1013.7 |
| 20260904053242 | 12 | 152 | 0.0 | 0.0 | 0.00 | 0.25 | 0.25 | 96 | 1013.4 |
| 20260904052738 | 12 | 151 | 0.0 | 0.0 | 0.00 | 0.25 | 0.25 | 96 | 1013.5 |
| 20260904052234 | 12 | 147 | 0.0 | 0.0 | 0.00 | 0.25 | 0.25 | 96 | 1013.4 |
| 20260904051731 | 13 | 152 | 0.0 | 0.0 | 0.00 | 0.25 | 0.25 | 95 | 1013.6 |
| 20260904051225 | 13 | 146 | 0.0 | 0.0 | 0.00 | 0.25 | 0.25 | 95 | 1013.8 |
| 20260904050720 | 13 | 145 | 0.0 | 0.0 | 0.00 | 0.25 | 0.25 | 95 | 1013.6 |
| 20260904050217 | 13 | 155 | 0.0 | 0.0 | 0.00 | 0.25 | 0.25 | 95 | 1013.8 |
| 20260904045716 | 13 | 153 | 0.0 | 0.0 | 0.00 | 0.25 | 0.25 | 95 | 1013.5 |
| 20260904045211 | 13 | 137 | 0.0 | 1.6 | 0.00 | 0.25 | 0.25 | 95 | 1013.5 |
| 20260904044706 | 13 | 154 | 0.0 | 0.0 | 0.00 | 0.25 | 0.25 | 95 | 1013.6 |
| 20260904044203 | 13 | 140 | 0.0 | 1.6 | 0.00 | 0.25 | 0.25 | 95 | 1013.8 |
| 20260904043659 | 13 | 152 | 0.0 | 0.0 | 0.00 | 0.25 | 0.25 | 95 | 1013.6 |
| 20260904043154 | 13 | 140 | 0.0 | 1.6 | 0.00 | 0.25 | 0.25 | 95 | 1013.8 |
| 20260904042650 | 13 | 146 | 0.0 | 0.0 | 0.00 | 0.25 | 0.25 | 95 | 1013.7 |
| 20260904042146 | 13 | 144 | 0.0 | 0.0 | 0.00 | 0.25 | 0.25 | 95 | 1013.6 |
| 20260904041641 | 13 | 149 | 0.0 | 0.0 | 0.00 | 0.25 | 0.25 | 95 | 1013.7 |
| 20260904041137 | 13 | 149 | 0.0 | 0.0 | 0.00 | 0.25 | 0.25 | 95 | 1013.6 |
| 20260904040633 | 13 | 151 | 0.0 | 0.0 | 0.00 | 0.25 | 0.25 | 95 | 1013.6 |
| 20260904040129 | 13 | 145 | 0.0 | 0.0 | 0.00 | 0.25 | 0.25 | 95 | 1013.8 |
| 20260904035625 | 13 | 145 | 0.0 | 0.0 | 0.00 | 0.25 | 0.25 | 94 | 1013.5 |
| 20260904035124 | 13 | 145 | 0.0 | 0.0 | 0.00 | 0.25 | 0.25 | 94 | 1013.6 |
| 20260904034619 | 13 | 145 | 0.0 | 0.0 | 0.00 | 0.25 | 0.25 | 94 | 1013.7 |
| 20260904034114 | 13 | 145 | 0.0 | 0.0 | 0.00 | 0.25 | 0.25 | 94 | 1013.6 |
| 20260904033610 | 13 | 145 | 0.0 | 0.0 | 0.00 | 0.25 | 0.25 | 94 | 1013.2 |
| 20260904033108 | 13 | 141 | 0.0 | 0.0 | 0.00 | 0.25 | 0.25 | 94 | 1013.2 |
| 20260904032608 | 13 | 148 | 0.0 | 0.0 | 0.00 | 0.25 | 0.25 | 93 | 1013.2 |
| 20260904032106 | 13 | 148 | 0.0 | 0.0 | 0.00 | 0.25 | 0.25 | 93 | 1013.2 |
| 20260904031606 | 13 | 148 | 0.0 | 0.0 | 0.00 | 0.25 | 0.25 | 93 | 1013.1 |
| 20260904031102 | 13 | 152 | 0.0 | 0.0 | 0.00 | 0.25 | 0.25 | 93 | 1013.2 |
| 20260904030558 | 13 | 152 | 0.0 | 0.0 | 0.00 | 0.25 | 0.25 | 93 | 1013.2 |
| 20260904030053 | 13 | 152 | 0.0 | 0.0 | 0.00 | 0.25 | 0.25 | 92 | 1013.0 |
| 20260904025548 | 13 | 152 | 0.0 | 0.0 | 0.00 | 0.25 | 0.25 | 92 | 1013.0 |
| 20260904025043 | 14 | 154 | 0.0 | 0.0 | 0.00 | 0.25 | 0.25 | 92 | 1012.9 |
| 20260904024539 | 14 | 153 | 0.0 | 0.0 | 0.00 | 0.25 | 0.25 | 92 | 1013.0 |
| 20260904024035 | 14 | 142 | 0.0 | 0.0 | 0.00 | 0.25 | 0.25 | 91 | 1013.0 |
| 20260904023531 | 14 | 159 | 0.0 | 0.0 | 0.00 | 0.25 | 0.25 | 91 | 1013.2 |
| 20260904023027 | 14 | 157 | 0.0 | 0.0 | 0.13 | 0.25 | 0.25 | 90 | 1013.0 |
| 20260904022526 | 14 | 157 | 0.0 | 0.0 | 0.13 | 0.25 | 0.25 | 90 | 1013.0 |
| 20260904022024 | 14 | 144 | 0.0 | 1.6 | 0.00 | 0.23 | 0.23 | 89 | 1013.0 |
| 20260904021519 | 15 | 139 | 0.0 | 0.0 | 0.00 | 0.23 | 0.23 | 89 | 1012.9 |
| 20260904021014 | 15 | 159 | 0.0 | 0.0 | 0.00 | 0.23 | 0.23 | 88 | 1012.9 |
| 20260904020514 | 15 | 154 | 0.0 | 0.0 | 0.00 | 0.23 | 0.23 | 87 | 1013.0 |
| 20260904020009 | 15 | 162 | 0.0 | 0.0 | 0.00 | 0.23 | 0.23 | 86 | 1012.9 |
| 20260904015503 | 15 | 149 | 0.0 | 3.2 | 0.18 | 0.23 | 0.23 | 85 | 1012.8 |
| 20260904015002 | 15 | 150 | 0.0 | 0.0 | 0.00 | 0.20 | 0.20 | 83 | 1012.7 |
| 20260904014456 | 15 | 130 | 0.0 | 0.0 | 0.00 | 0.20 | 0.20 | 82 | 1012.8 |
| 20260904013953 | 15 | 157 | 0.0 | 0.0 | 0.00 | 0.20 | 0.20 | 82 | 1012.8 |
| 20260904013448 | 16 | 86 | 3.2 | 8.0 | 0.00 | 0.20 | 0.20 | 80 | 1012.7 |
| 20260904012945 | 16 | 136 | 0.0 | 0.0 | 0.00 | 0.20 | 0.20 | 78 | 1012.7 |
| 20260904012444 | 17 | 143 | 0.0 | 0.0 | 0.00 | 0.20 | 0.20 | 72 | 1013.1 |
| 20260904011938 | 17 | 162 | 0.0 | 3.2 | 0.00 | 0.20 | 0.20 | 69 | 1012.9 |
| 20260904011433 | 17 | 178 | 3.2 | 3.2 | 0.00 | 0.20 | 0.20 | 66 | 1012.9 |
| 20260904010929 | 17 | 197 | 3.2 | 3.2 | 0.00 | 0.20 | 0.20 | 65 | 1012.8 |
| 20260904010425 | 18 | 183 | 3.2 | 8.0 | 0.00 | 0.20 | 0.20 | 63 | 1012.6 |
| 20260904005920 | 18 | 203 | 4.8 | 8.0 | 0.00 | 0.20 | 0.20 | 62 | 1012.8 |
| 20260904005416 | 18 | 215 | 3.2 | 4.8 | 0.00 | 0.20 | 0.20 | 62 | 1012.6 |
| 20260904004915 | 18 | 227 | 6.4 | 11.3 | 0.00 | 0.20 | 0.20 | 61 | 1012.6 |
| 20260904004412 | 19 | 175 | 6.4 | 8.0 | 0.00 | 0.20 | 0.20 | 60 | 1012.7 |
| 20260904003912 | 18 | 164 | 8.0 | 14.5 | 0.00 | 0.20 | 0.20 | 62 | 1012.4 |
| 20260904003403 | 18 | 191 | 1.6 | 4.8 | 0.00 | 0.20 | 0.20 | 65 | 1012.6 |
| 20260904002903 | 20 | 226 | 11.3 | 12.9 | 0.00 | 0.20 | 0.20 | 61 | 1012.3 |
| 20260904002400 | 20 | 188 | 1.6 | 8.0 | 0.00 | 0.20 | 0.20 | 60 | 1012.3 |
| 20260904001858 | 20 | 177 | 1.6 | 4.8 | 0.00 | 0.20 | 0.20 | 58 | 1012.5 |
| 20260904001354 | 19 | 248 | 4.8 | 8.0 | 0.00 | 0.20 | 0.20 | 60 | 1012.5 |
| 20260904000849 | 19 | 209 | 11.3 | 14.5 | 0.00 | 0.20 | 0.20 | 57 | 1012.3 |
| 20260904000348 | 20 | 174 | 9.7 | 12.9 | 0.00 | 0.20 | 0.20 | 53 | 1012.5 |
| 20260903235848 | 21 | 151 | 4.8 | 4.8 | 0.00 | 0.20 | 0.20 | 52 | 1012.4 |
| 20260903235345 | 20 | 199 | 3.2 | 4.8 | 0.00 | 0.20 | 0.20 | 53 | 1012.4 |
| 20260903234844 | 20 | 184 | 3.2 | 8.0 | 0.00 | 0.20 | 0.20 | 51 | 1012.3 |
| 20260903234340 | 20 | 160 | 3.2 | 8.0 | 0.00 | 0.20 | 0.20 | 51 | 1012.3 |
| 20260903233836 | 20 | 158 | 4.8 | 8.0 | 0.00 | 0.20 | 0.20 | 53 | 1012.2 |
| 20260903233332 | 20 | 154 | 9.7 | 12.9 | 0.00 | 0.20 | 0.20 | 52 | 1012.3 |
| 20260903232831 | 20 | 184 | 4.8 | 9.7 | 0.00 | 0.20 | 0.20 | 51 | 1012.3 |
| 20260903232327 | 21 | 195 | 4.8 | 8.0 | 0.00 | 0.20 | 0.20 | 52 | 1012.2 |
| 20260903231826 | 20 | 206 | 6.4 | 8.0 | 0.00 | 0.20 | 0.20 | 51 | 1012.4 |
| 20260903231321 | 20 | 199 | 8.0 | 14.5 | 0.00 | 0.20 | 0.20 | 52 | 1012.0 |
| 20260903230817 | 21 | 204 | 8.0 | 12.9 | 0.00 | 0.20 | 0.20 | 51 | 1012.2 |
| 20260903230312 | 20 | 145 | 4.8 | 4.8 | 0.00 | 0.20 | 0.20 | 53 | 1012.3 |
| 20260903225808 | 20 | 59 | 1.6 | 9.7 | 0.00 | 0.20 | 0.20 | 52 | 1012.5 |
| 20260903225306 | 20 | 214 | 4.8 | 8.0 | 0.00 | 0.20 | 0.20 | 55 | 1012.3 |
| 20260903224801 | 20 | 51 | 6.4 | 9.7 | 0.00 | 0.20 | 0.20 | 54 | 1012.2 |
| 20260903224256 | 20 | 160 | 0.0 | 3.2 | 0.00 | 0.20 | 0.20 | 56 | 1012.3 |
| 20260903223751 | 19 | 161 | 0.0 | 3.2 | 0.00 | 0.20 | 0.20 | 57 | 1012.4 |
| 20260903223250 | 19 | 242 | 4.8 | 9.7 | 0.00 | 0.20 | 0.20 | 56 | 1012.7 |
| 20260903222745 | 19 | 157 | 1.6 | 4.8 | 0.00 | 0.20 | 0.20 | 59 | 1012.5 |
| 20260903222244 | 18 | 191 | 6.4 | 8.0 | 0.00 | 0.20 | 0.20 | 59 | 1012.5 |
| 20260903221739 | 19 | 191 | 3.2 | 4.8 | 0.00 | 0.20 | 0.20 | 57 | 1012.7 |
| 20260903221238 | 19 | 190 | 4.8 | 8.0 | 0.00 | 0.20 | 0.20 | 56 | 1012.7 |
| 20260903220736 | 19 | 198 | 4.8 | 4.8 | 0.00 | 0.20 | 0.20 | 59 | 1012.5 |
| 20260903220231 | 19 | 187 | 4.8 | 4.8 | 0.00 | 0.20 | 0.20 | 57 | 1012.5 |
| 20260903215730 | 18 | 210 | 1.6 | 4.8 | 0.00 | 0.20 | 0.20 | 62 | 1012.7 |
| 20260903215226 | 18 | 176 | 3.2 | 4.8 | 0.00 | 0.20 | 0.20 | 60 | 1012.7 |
| 20260903214723 | 18 | 224 | 6.4 | 8.0 | 0.00 | 0.20 | 0.20 | 61 | 1012.6 |